Location: Sperry Observatory
(40.6664°N, 74.3236°W)
Time: 03:26:01
(UTC-04:00)

UOSAT-12 - Visible Passes

Search period start: 25 May 2015 00:00
Search period end: 04 June 2015 00:00
Orbit: 597 x 658 km, 64.6° (Epoch: 24 May)

Date Brightness Start Highest point End Pass type
(mag) Time Alt. Az. Time Alt. Az. Time Alt. Az.
25 May 9.3 04:26:28 10° SSE 04:29:54 21° ESE 04:33:30 10° ENE visible
26 May 8.1 04:45:21 10° S 04:49:49 46° ESE 04:54:21 10° NE visible
27 May 9.8 03:29:00 10° SE 03:30:17 11° ESE 03:31:52 10° E visible
28 May 8.9 03:46:32 11° SSE 03:50:06 25° ESE 03:54:01 10° ENE visible
29 May 7.7 04:06:23 16° SSW 04:10:02 56° ESE 04:14:40 10° NE visible
30 May 9.5 02:48:51 12° SE 02:50:27 14° ESE 02:52:57 10° ENE visible
30 May 7.3 04:26:10 14° SW 04:30:07 68° NW 04:34:50 10° NNE visible
31 May 8.5 03:08:34 23° SSE 03:10:18 30° ESE 03:14:27 10° NE visible
31 May 8.3 04:46:08 10° WSW 04:50:24 33° NW 04:54:40 10° NNE visible
01 Jun 7.3 03:28:14 33° SSW 03:30:15 68° ESE 03:34:57 10° NE visible
02 Jun 9.2 02:10:32 17° ESE 02:10:37 17° ESE 02:13:42 10° ENE visible
02 Jun 7.5 03:47:51 25° WSW 03:50:23 56° NW 03:55:03 10° NNE visible
03 Jun 8.0 02:30:06 36° SE 02:30:30 36° ESE 02:34:50 10° NE visible
03 Jun 8.5 04:07:24 14° WSW 04:10:43 29° NW 04:14:48 10° NNE visible
